Simultaneous Nadir Overpasses (SNOs) Predictions

Prediction of SNOs between METOP-A and NOAA-19 Satellite Orbit:

Table of predicted SNOs for the next 14.0 days since TLE Epoch: 8/7/2021
Index Date (METOP-A) Time (METOP-A) Lat,Lon (METOP-A) SZA (METOP-A ) Date (NOAA-19) Time (NOAA-19) Lat,Lon (NOAA-19) SZA (NOAA-19 ) Distance(km) Time Diff (sec)
1 08/08/2021 13:31:40 80.71, -17.53 64.72 08/08/2021 13:30:26 80.72, -17.47 64.72 1.60 74
2 08/08/2021 14:22:20 -80.74, 150.12 115.25 08/08/2021 14:21:31 -80.73, 149.95 115.26 3.06 49
3 08/08/2021 15:13:01 80.73, -42.69 64.75 08/08/2021 15:12:26 80.73, -42.86 64.75 3.17 35
4 08/08/2021 16:03:41 -80.75, 124.96 115.22 08/08/2021 16:03:30 -80.74, 124.91 115.23 1.25 11
5 08/08/2021 16:54:22 80.74, -67.84 64.79 08/08/2021 16:54:25 80.74, -67.90 64.79 1.00 3
6 08/08/2021 17:45:03 -80.74, 99.47 115.21 08/08/2021 17:45:30 -80.74, 99.51 115.20 1.03 27
7 08/08/2021 18:35:43 80.75, -93.00 64.82 08/08/2021 18:36:24 80.75, -92.93 64.83 1.24 41
8 08/08/2021 19:26:24 -80.75, 74.31 115.17 08/08/2021 19:27:29 -80.76, 74.48 115.16 3.05 65
9 08/19/2021 16:26:20 80.69, -61.82 68.12 08/19/2021 16:25:07 80.69, -61.85 68.12 0.49 73
10 08/19/2021 17:17:01 -80.70, 105.61 111.87 08/19/2021 17:16:11 -80.69, 105.47 111.87 2.56 50
11 08/19/2021 18:07:41 80.70, -86.98 68.16 08/19/2021 18:07:06 80.70, -86.89 68.16 1.64 35
12 08/19/2021 18:58:22 -80.71, 80.45 111.83 08/19/2021 18:58:10 -80.71, 80.42 111.83 0.64 12
13 08/19/2021 19:49:02 80.72,-112.14 68.20 08/19/2021 19:49:06 80.71,-112.29 68.19 2.90 4
14 08/19/2021 20:39:44 -80.70, 54.95 111.82 08/19/2021 20:40:10 -80.71, 55.01 111.80 1.58 26
15 08/19/2021 21:30:24 80.70,-137.64 68.21 08/19/2021 21:31:06 80.71,-137.70 68.21 1.18 42



Historial Predications of SNOs between METOP-A and NOAA-19
